Location: Toronto
(43.6672°N, 79.4170°W)
Time: 13:26:58
(UTC-04:00)

ISS - Visible Passes

Search period start: 22 July 2014 00:00
Search period end: 01 August 2014 00:00
Orbit: 412 x 420 km, 51.6° (Epoch: 22 July)

Date Brightness Start Highest point End Pass type
(mag) Time Alt. Az. Time Alt. Az. Time Alt. Az.
22 Jul -1.8 03:02:32 32° E 03:02:32 32° E 03:04:40 10° ENE visible
22 Jul -1.9 04:35:25 12° W 04:38:15 34° NNW 04:41:22 10° NE visible
23 Jul -0.3 02:15:44 11° E 02:15:44 11° E 02:15:57 10° ENE visible
23 Jul -2.5 03:48:37 33° WNW 03:49:40 46° NNW 03:52:56 10° NE visible
24 Jul -2.5 03:01:47 52° NNE 03:01:47 52° NNE 03:04:29 10° NE visible
24 Jul -1.1 04:35:31 10° WNW 04:38:17 23° N 04:41:05 10° NE visible
25 Jul -0.8 02:14:55 19° ENE 02:14:55 19° ENE 02:15:59 10° ENE visible
25 Jul -1.4 03:47:48 17° WNW 03:49:37 28° NNW 03:52:35 10° NE visible
25 Jul -0.8 05:24:28 10° NW 05:27:07 21° N 05:29:45 10° NE visible
26 Jul -1.9 03:00:55 35° NNW 03:00:59 35° NNW 03:04:08 10° NE visible
26 Jul -0.8 04:35:47 10° NW 04:38:24 20° N 04:41:01 10° NE visible
27 Jul -1.1 02:14:02 25° NE 02:14:02 25° NE 02:15:41 10° NE visible
27 Jul -0.8 03:47:01 10° WNW 03:49:41 21° N 03:52:22 10° NE visible
27 Jul -1.0 05:24:18 10° NW 05:27:12 26° NNE 05:30:05 10° ENE visible
28 Jul -0.1 01:27:07 11° NE 01:27:07 11° NE 01:27:13 10° NE visible
28 Jul -1.1 03:00:00 21° NW 03:00:59 24° NNW 03:03:48 10° NE visible
28 Jul -0.8 04:35:47 10° NW 04:38:30 22° N 04:41:14 10° ENE visible
29 Jul -1.0 02:13:06 25° N 02:13:06 25° N 02:15:18 10° NE visible
29 Jul -0.7 03:47:10 10° NW 03:49:48 21° N 03:52:25 10° NE visible
29 Jul -1.8 05:23:56 10° NW 05:27:09 40° NNE 05:30:22 10° E visible
30 Jul -0.3 01:26:13 14° NE 01:26:13 14° NE 01:26:50 10° NE visible
30 Jul -0.6 02:59:05 13° NW 03:01:04 20° N 03:03:41 10° NE visible
30 Jul -1.3 04:35:29 10° NW 04:38:32 30° NNE 04:41:34 10° E visible
31 Jul -0.8 02:12:15 22° N 02:12:21 22° N 02:15:02 10° NE visible
31 Jul -0.9 03:47:00 10° NW 03:49:51 25° NNE 03:52:43 10° ENE visible
31 Jul -3.2 05:23:34 10° WNW 05:26:57 87° NNE 05:30:18 10° ESE visible
